Location: Calvatone
(45.1167°N, 10.4333°E)
Time: 10:47:15
(UTC+00:00)

METEOR M2 - Pass Details

Date: 03 December 2023
Orbit: 818 x 826 km, 98.4° (Epoch: 24 February)

Event Time Altitude Azimuth Distance (km) Brightness Sun altitude
Rises 03:58:11 0° 28° (NNE) 3,370 ? -27.5°
Reaches altitude 10° 04:01:17 10° 46° (NE) 2,430 ? -27.0°
Maximum altitude 04:04:59 19° 90° (E) 1,886 ? -26.3°
Drops below altitude 10° 04:08:39 10° 134° (SE) 2,414 ? -25.7°
Sets 04:11:43 0° 152° (SSE) 3,340 ? -25.1°
